User: anonymous   Login
Location: Unspecified
(0.0000°N, 0.0000°E)
Time: 15:14:08
(UTC+00:00)
Language:

USA 176 - Orbit

View from above orbital plane
View from above orbital plane
View from above satellite
View from above satellite

Ground track
Ground track

The orbit data is extracted from the following two-line orbital elements,

1 28158U 04004A   14344.74235103 0.00000000  00000-0  00000-0 0    06
2 28158   6.2865  52.6546 0005210  38.3799 321.6808  1.00270000    06
Epoch (UTC): 10 December 2014 17:48:59
Eccentricity: 0.0005210
inclination: 6.2865°
perigee height: 35765 km
apogee height: 35808 km
right ascension of ascending node: 52.6546°
argument of perigee: 38.3799°
revolutions per day: 1.00270000
mean anomaly at epoch: 321.6808°
orbit number at epoch: 0

The dashed part of the orbit path shows where the satellite is in the earth's shadow,  

DLR